Time,TemperatureF,DewpointF,PressureIn,WindDirection,WindDirectionDegrees,WindSpeedMPH,WindSpeedGustMPH,Humidity,HourlyPrecipIn,Conditions,Clouds,dailyrainin,SoftwareType,DateUTC
2013-04-10 00:03:00,67.3,59.5,29.76,North,0,0.0,0.0,76,0.00,,,0.00,WUHU21623XXSP,2013-04-10 05:03:00,
2013-04-10 00:08:00,67.3,59.1,29.77,North,0,0.0,0.0,75,0.00,,,0.00,WUHU21623XXSP,2013-04-10 05:08:00,
2013-04-10 00:13:00,67.6,59.8,29.77,North,0,0.0,0.0,76,0.00,,,0.00,WUHU21623XXSP,2013-04-10 05:13:00,
2013-04-10 00:18:00,67.5,59.3,29.77,North,0,0.0,0.0,75,0.00,,,0.00,WUHU21623XXSP,2013-04-10 05:18:00,
2013-04-10 00:23:00,67.5,59.5,29.77,North,0,0.0,0.0,75,0.00,,,0.00,WUHU21623XXSP,2013-04-10 05:23:00,
2013-04-10 00:28:00,67.3,59.1,29.78,North,0,0.0,0.0,75,0.00,,,0.00,WUHU21623XXSP,2013-04-10 05:28:00,
2013-04-10 00:33:00,67.3,59.1,29.77,North,0,0.0,0.0,75,0.00,,,0.00,WUHU21623XXSP,2013-04-10 05:33:00,
2013-04-10 00:39:00,67.3,59.1,29.77,North,0,0.0,0.0,75,0.00,,,0.00,WUHU21623XXSP,2013-04-10 05:39:00,
2013-04-10 00:44:00,67.1,58.9,29.77,North,0,0.0,0.0,75,0.00,,,0.00,WUHU21623XXSP,2013-04-10 05:44:00,
2013-04-10 00:49:00,67.1,58.9,29.77,North,0,0.0,0.0,75,0.00,,,0.00,WUHU21623XXSP,2013-04-10 05:49:00,
2013-04-10 00:54:00,66.9,58.7,29.78,North,0,0.0,0.0,75,0.00,,,0.00,WUHU21623XXSP,2013-04-10 05:54:00,
2013-04-10 00:59:00,66.9,58.7,29.77,North,0,0.0,0.0,75,0.00,,,0.00,WUHU21623XXSP,2013-04-10 05:59:00,
2013-04-10 01:04:00,66.9,58.7,29.77,North,0,0.0,0.0,75,0.00,,,0.00,WUHU21623XXSP,2013-04-10 06:04:00,
2013-04-10 01:12:00,66.9,58.7,29.77,North,0,0.0,0.0,75,0.00,,,0.00,WUHU21623XXSP,2013-04-10 06:12:00,
2013-04-10 01:17:00,66.9,58.7,29.77,North,0,0.0,0.0,75,0.00,,,0.00,WUHU21623XXSP,2013-04-10 06:17:00,
2013-04-10 01:22:00,66.9,58.7,29.77,North,0,0.0,0.0,75,0.00,,,0.00,WUHU21623XXSP,2013-04-10 06:22:00,
2013-04-10 01:27:00,66.9,58.7,29.77,North,0,0.0,0.0,75,0.00,,,0.00,WUHU21623XXSP,2013-04-10 06:27:00,
2013-04-10 01:32:00,66.7,58.5,29.76,North,0,0.0,0.0,75,0.00,,,0.00,WUHU21623XXSP,2013-04-10 06:32:00,
2013-04-10 01:37:00,66.7,58.5,29.77,North,0,0.0,0.0,75,0.00,,,0.00,WUHU21623XXSP,2013-04-10 06:37:00,
2013-04-10 01:42:00,66.7,58.5,29.77,North,0,0.0,0.0,75,0.00,,,0.00,WUHU21623XXSP,2013-04-10 06:42:00,
2013-04-10 01:47:00,66.6,58.7,29.77,North,0,0.0,0.0,76,0.00,,,0.00,WUHU21623XXSP,2013-04-10 06:47:00,
2013-04-10 01:52:00,66.6,58.7,29.77,North,0,0.0,0.0,76,0.00,,,0.00,WUHU21623XXSP,2013-04-10 06:52:00,
2013-04-10 01:57:00,66.4,58.7,29.77,North,0,0.0,0.0,76,0.00,,,0.00,WUHU21623XXSP,2013-04-10 06:57:00,
2013-04-10 02:02:00,66.6,58.7,29.77,North,0,0.0,0.0,76,0.00,,,0.00,WUHU21623XXSP,2013-04-10 07:02:00,
2013-04-10 02:07:00,66.6,59.1,29.77,North,0,0.0,0.0,77,0.00,,,0.00,WUHU21623XXSP,2013-04-10 07:07:00,
2013-04-10 02:12:00,66.7,59.3,29.77,North,0,0.0,0.0,77,0.00,,,0.00,WUHU21623XXSP,2013-04-10 07:12:00,
2013-04-10 02:17:00,66.7,59.3,29.77,North,0,0.0,0.0,77,0.00,,,0.00,WUHU21623XXSP,2013-04-10 07:17:00,
2013-04-10 02:22:00,66.9,59.5,29.76,North,0,0.0,0.0,77,0.00,,,0.00,WUHU21623XXSP,2013-04-10 07:22:00,
2013-04-10 02:27:00,66.9,59.5,29.76,North,0,0.0,0.0,77,0.00,,,0.00,WUHU21623XXSP,2013-04-10 07:27:00,
2013-04-10 02:32:00,67.1,59.7,29.76,North,0,0.0,0.0,77,0.00,,,0.00,WUHU21623XXSP,2013-04-10 07:32:00,
2013-04-10 02:38:00,67.1,59.7,29.76,North,0,0.0,0.0,77,0.00,,,0.00,WUHU21623XXSP,2013-04-10 07:38:00,
2013-04-10 02:43:00,67.3,59.8,29.75,North,0,0.0,0.0,77,0.00,,,0.00,WUHU21623XXSP,2013-04-10 07:43:00,
2013-04-10 02:48:00,67.3,59.8,29.75,North,0,0.0,0.0,77,0.00,,,0.00,WUHU21623XXSP,2013-04-10 07:48:00,
2013-04-10 02:53:00,67.3,60.2,29.75,North,0,0.0,0.0,78,0.00,,,0.00,WUHU21623XXSP,2013-04-10 07:53:00,
2013-04-10 02:58:00,67.3,60.2,29.74,North,0,0.0,0.0,78,0.00,,,0.00,WUHU21623XXSP,2013-04-10 07:58:00,
2013-04-10 03:03:00,67.3,60.2,29.74,North,0,0.0,0.0,78,0.00,,,0.00,WUHU21623XXSP,2013-04-10 08:03:00,
2013-04-10 03:08:00,67.5,60.4,29.74,North,0,0.0,0.0,78,0.00,,,0.00,WUHU21623XXSP,2013-04-10 08:08:00,
2013-04-10 03:13:00,67.6,60.6,29.75,North,0,0.0,0.0,78,0.00,,,0.00,WUHU21623XXSP,2013-04-10 08:13:00,
2013-04-10 03:18:00,67.6,60.6,29.75,North,0,0.0,0.0,78,0.00,,,0.00,WUHU21623XXSP,2013-04-10 08:18:00,
2013-04-10 03:23:00,67.6,60.6,29.75,North,0,0.0,0.0,78,0.00,,,0.00,WUHU21623XXSP,2013-04-10 08:23:00,
2013-04-10 03:28:00,67.6,60.6,29.75,North,0,0.0,0.0,78,0.00,,,0.00,WUHU21623XXSP,2013-04-10 08:28:00,
2013-04-10 03:33:00,67.6,60.6,29.74,North,0,0.0,0.0,78,0.00,,,0.00,WUHU21623XXSP,2013-04-10 08:33:00,
2013-04-10 03:38:00,67.6,60.6,29.75,North,0,0.0,0.0,78,0.00,,,0.00,WUHU21623XXSP,2013-04-10 08:38:00,
2013-04-10 03:43:00,67.6,60.6,29.75,North,0,0.0,0.0,78,0.00,,,0.00,WUHU21623XXSP,2013-04-10 08:43:00,
2013-04-10 03:48:00,67.6,60.6,29.75,North,0,0.0,0.0,78,0.00,,,0.00,WUHU21623XXSP,2013-04-10 08:48:00,
2013-04-10 03:53:00,67.6,61.0,29.74,North,0,0.0,0.0,79,0.00,,,0.00,WUHU21623XXSP,2013-04-10 08:53:00,
2013-04-10 03:58:00,67.6,61.0,29.74,North,0,0.0,0.0,79,0.00,,,0.00,WUHU21623XXSP,2013-04-10 08:58:00,
2013-04-10 04:03:00,67.8,61.0,29.75,North,0,0.0,0.0,79,0.00,,,0.00,WUHU21623XXSP,2013-04-10 09:03:00,
2013-04-10 04:08:00,67.8,60.8,29.80,North,0,0.0,0.0,78,0.00,,,0.00,WUHU21623XXSP,2013-04-10 09:08:00,
2013-04-10 04:13:00,66.7,57.4,29.81,North,0,0.0,0.0,72,0.00,,,0.00,WUHU21623XXSP,2013-04-10 09:13:00,
2013-04-10 04:18:00,65.1,55.5,29.80,North,0,0.0,0.0,71,0.00,,,0.00,WUHU21623XXSP,2013-04-10 09:18:00,
2013-04-10 04:23:00,63.7,54.5,29.81,North,0,0.0,0.0,72,0.00,,,0.00,WUHU21623XXSP,2013-04-10 09:23:00,
2013-04-10 04:28:00,61.2,53.7,29.80,North,0,0.0,0.0,75,0.00,,,0.00,WUHU21623XXSP,2013-04-10 09:28:00,
2013-04-10 04:33:00,59.7,52.2,29.79,North,0,0.0,0.0,76,0.00,,,0.00,WUHU21623XXSP,2013-04-10 09:33:00,
2013-04-10 04:38:00,58.8,51.6,29.80,North,0,0.0,0.0,78,0.00,,,0.00,WUHU21623XXSP,2013-04-10 09:38:00,
2013-04-10 04:43:00,57.7,51.3,29.80,North,0,0.0,0.0,79,0.00,,,0.00,WUHU21623XXSP,2013-04-10 09:43:00,
2013-04-10 04:48:00,57.4,51.3,29.79,North,0,0.0,0.0,80,0.00,,,0.00,WUHU21623XXSP,2013-04-10 09:48:00,
2013-04-10 04:53:00,57.4,51.6,29.80,North,0,0.0,0.0,81,0.00,,,0.00,WUHU21623XXSP,2013-04-10 09:53:00,
2013-04-10 04:58:00,57.4,51.9,29.79,North,0,0.0,0.0,82,0.00,,,0.00,WUHU21623XXSP,2013-04-10 09:58:00,
2013-04-10 05:03:00,57.4,51.9,29.79,North,0,0.0,0.0,82,0.00,,,0.00,WUHU21623XXSP,2013-04-10 10:03:00,
2013-04-10 05:08:00,57.4,51.9,29.80,North,0,0.0,0.0,82,0.00,,,0.00,WUHU21623XXSP,2013-04-10 10:08:00,
2013-04-10 05:13:00,57.4,51.9,29.81,North,0,0.0,0.0,82,0.00,,,0.00,WUHU21623XXSP,2013-04-10 10:13:00,
2013-04-10 05:18:00,57.4,51.9,29.81,North,0,0.0,0.0,82,0.00,,,0.00,WUHU21623XXSP,2013-04-10 10:18:00,
2013-04-10 05:23:00,57.4,51.9,29.80,North,0,0.0,0.0,82,0.00,,,0.00,WUHU21623XXSP,2013-04-10 10:23:00,
2013-04-10 05:29:00,57.4,51.9,29.79,North,0,0.0,0.0,82,0.00,,,0.00,WUHU21623XXSP,2013-04-10 10:29:00,
2013-04-10 05:34:00,57.0,51.5,29.79,North,0,0.0,0.0,82,0.00,,,0.00,WUHU21623XXSP,2013-04-10 10:34:00,
2013-04-10 05:39:00,57.0,51.5,29.80,North,0,0.0,0.0,82,0.00,,,0.00,WUHU21623XXSP,2013-04-10 10:39:00,
2013-04-10 05:44:00,56.8,51.4,29.79,North,0,0.0,0.0,82,0.00,,,0.00,WUHU21623XXSP,2013-04-10 10:44:00,
2013-04-10 05:49:00,56.8,51.4,29.80,North,0,0.0,0.0,82,0.00,,,0.00,WUHU21623XXSP,2013-04-10 10:49:00,
2013-04-10 05:54:00,56.5,51.0,29.79,North,0,0.0,0.0,82,0.00,,,0.00,WUHU21623XXSP,2013-04-10 10:54:00,
2013-04-10 05:59:00,56.5,51.3,29.81,North,0,0.0,0.0,83,0.00,,,0.00,WUHU21623XXSP,2013-04-10 10:59:00,
2013-04-10 06:04:00,56.3,51.2,29.81,North,0,0.0,0.0,83,0.00,,,0.00,WUHU21623XXSP,2013-04-10 11:04:00,
2013-04-10 06:09:00,56.3,51.2,29.81,North,0,0.0,0.0,83,0.00,,,0.00,WUHU21623XXSP,2013-04-10 11:09:00,
2013-04-10 06:14:00,56.1,51.0,29.81,North,0,0.0,0.0,83,0.00,,,0.00,WUHU21623XXSP,2013-04-10 11:14:00,
2013-04-10 06:19:00,55.9,50.5,29.81,North,0,0.0,0.0,82,0.00,,,0.00,WUHU21623XXSP,2013-04-10 11:19:00,
2013-04-10 06:24:00,55.9,50.5,29.82,North,0,0.0,0.0,82,0.00,,,0.00,WUHU21623XXSP,2013-04-10 11:24:00,
2013-04-10 06:29:00,55.8,50.5,29.82,North,0,0.0,0.0,82,0.00,,,0.00,WUHU21623XXSP,2013-04-10 11:29:00,
2013-04-10 06:34:00,55.6,50.1,29.82,North,0,0.0,0.0,82,0.00,,,0.00,WUHU21623XXSP,2013-04-10 11:34:00,
2013-04-10 06:39:00,55.6,50.4,29.81,North,0,0.0,0.0,83,0.00,,,0.00,WUHU21623XXSP,2013-04-10 11:39:00,
2013-04-10 06:44:00,55.4,50.3,29.81,North,0,0.0,0.0,83,0.00,,,0.00,WUHU21623XXSP,2013-04-10 11:44:00,
2013-04-10 06:49:00,55.2,50.1,29.82,North,0,0.0,0.0,83,0.00,,,0.00,WUHU21623XXSP,2013-04-10 11:49:00,
2013-04-10 06:54:00,55.0,49.9,29.84,North,0,0.0,0.0,83,0.00,,,0.00,WUHU21623XXSP,2013-04-10 11:54:00,
2013-04-10 06:59:00,55.0,49.9,29.83,North,0,0.0,0.0,84,0.00,,,0.00,WUHU21623XXSP,2013-04-10 11:59:00,
2013-04-10 07:04:00,54.7,49.9,29.82,North,0,0.0,0.0,84,0.00,,,0.00,WUHU21623XXSP,2013-04-10 12:04:00,
2013-04-10 07:09:00,54.5,49.9,29.83,North,0,0.0,0.0,84,0.00,,,0.00,WUHU21623XXSP,2013-04-10 12:09:00,
2013-04-10 07:15:00,54.5,49.7,29.83,North,0,0.0,0.0,84,0.00,,,0.00,WUHU21623XXSP,2013-04-10 12:15:00,
2013-04-10 07:20:00,54.5,49.7,29.82,North,0,0.0,0.0,84,0.00,,,0.00,WUHU21623XXSP,2013-04-10 12:20:00,
2013-04-10 07:25:00,54.1,49.5,29.82,North,0,0.0,0.0,84,0.00,,,0.00,WUHU21623XXSP,2013-04-10 12:25:00,
2013-04-10 07:30:00,53.4,49.0,29.82,North,0,0.0,0.0,85,0.00,,,0.00,WUHU21623XXSP,2013-04-10 12:30:00,
2013-04-10 07:35:00,53.2,48.8,29.84,North,0,0.0,0.0,85,0.00,,,0.00,WUHU21623XXSP,2013-04-10 12:35:00,
2013-04-10 07:40:00,52.9,48.8,29.87,North,0,0.0,0.0,86,0.00,,,0.00,WUHU21623XXSP,2013-04-10 12:40:00,
2013-04-10 07:45:00,52.7,48.8,29.87,North,0,0.0,0.0,86,0.00,,,0.00,WUHU21623XXSP,2013-04-10 12:45:00,
2013-04-10 07:50:00,52.5,48.4,29.88,North,0,0.0,0.0,86,0.00,,,0.00,WUHU21623XXSP,2013-04-10 12:50:00,
2013-04-10 07:55:00,52.3,48.4,29.87,North,0,0.0,0.0,86,0.00,,,0.00,WUHU21623XXSP,2013-04-10 12:55:00,
2013-04-10 08:00:00,52.0,48.4,29.85,North,0,0.0,0.0,87,0.00,,,0.00,WUHU21623XXSP,2013-04-10 13:00:00,
2013-04-10 08:05:00,52.0,48.2,29.83,North,0,0.0,0.0,87,0.00,,,0.00,WUHU21623XXSP,2013-04-10 13:05:00,
2013-04-10 08:10:00,52.0,48.2,29.83,North,0,0.0,0.0,87,0.00,,,0.00,WUHU21623XXSP,2013-04-10 13:10:00,
2013-04-10 08:15:00,51.8,48.3,29.84,North,0,0.0,0.0,88,0.00,,,0.00,WUHU21623XXSP,2013-04-10 13:15:00,
2013-04-10 08:20:00,51.8,48.1,29.84,North,0,0.0,0.0,88,0.00,,,0.00,WUHU21623XXSP,2013-04-10 13:20:00,
2013-04-10 08:25:00,51.8,48.3,29.83,North,0,0.0,0.0,88,0.00,,,0.00,WUHU21623XXSP,2013-04-10 13:25:00,
2013-04-10 08:30:00,52.0,48.8,29.83,North,0,0.0,0.0,89,0.00,,,0.00,WUHU21623XXSP,2013-04-10 13:30:00,
2013-04-10 08:35:00,52.0,48.8,29.83,North,0,0.0,0.0,88,0.00,,,0.00,WUHU21623XXSP,2013-04-10 13:35:00,
2013-04-10 08:40:00,52.2,48.7,29.84,North,0,0.0,0.0,88,0.00,,,0.00,WUHU21623XXSP,2013-04-10 13:40:00,
2013-04-10 08:45:00,52.3,48.8,29.86,North,0,0.0,0.0,88,0.00,,,0.00,WUHU21623XXSP,2013-04-10 13:45:00,
2013-04-10 08:50:00,52.3,48.8,29.86,North,0,0.0,0.0,88,0.00,,,0.00,WUHU21623XXSP,2013-04-10 13:50:00,
2013-04-10 08:55:00,52.0,48.2,29.86,North,0,0.0,0.0,87,0.00,,,0.00,WUHU21623XXSP,2013-04-10 13:55:00,
2013-04-10 09:00:00,51.6,47.8,29.86,North,0,0.0,0.0,87,0.00,,,0.00,WUHU21623XXSP,2013-04-10 14:00:00,
2013-04-10 09:05:00,51.6,47.8,29.84,North,0,0.0,0.0,87,0.00,,,0.00,WUHU21623XXSP,2013-04-10 14:05:00,
2013-04-10 09:10:00,51.4,47.9,29.83,North,0,0.0,0.0,88,0.00,,,0.00,WUHU21623XXSP,2013-04-10 14:10:00,
2013-04-10 09:15:00,51.1,47.6,29.85,North,0,0.0,0.0,88,0.00,,,0.00,WUHU21623XXSP,2013-04-10 14:15:00,
2013-04-10 09:20:00,50.9,47.4,29.88,North,0,0.0,0.0,88,0.00,,,0.00,WUHU21623XXSP,2013-04-10 14:20:00,
2013-04-10 09:25:00,51.1,47.6,29.89,North,0,0.0,0.0,88,0.00,,,0.00,WUHU21623XXSP,2013-04-10 14:25:00,
2013-04-10 09:30:00,51.1,47.6,29.92,North,0,0.0,0.0,88,0.00,,,0.00,WUHU21623XXSP,2013-04-10 14:30:00,
2013-04-10 09:35:00,51.1,47.6,29.87,North,0,0.0,0.0,88,0.00,,,0.00,WUHU21623XXSP,2013-04-10 14:35:00,
2013-04-10 09:40:00,50.9,47.4,29.85,North,0,0.0,0.0,88,0.00,,,0.00,WUHU21623XXSP,2013-04-10 14:40:00,
2013-04-10 09:45:00,50.7,47.5,29.82,North,0,0.0,0.0,89,0.00,,,0.00,WUHU21623XXSP,2013-04-10 14:45:00,
2013-04-10 09:50:00,50.7,48.1,29.79,North,0,0.0,0.0,91,0.00,,,0.00,WUHU21623XXSP,2013-04-10 14:50:00,
2013-04-10 09:55:00,50.5,47.8,29.81,North,0,0.0,0.0,90,0.00,,,0.00,WUHU21623XXSP,2013-04-10 14:55:00,
2013-04-10 10:00:00,50.5,47.7,29.82,North,0,0.0,0.0,90,0.00,,,0.00,WUHU21623XXSP,2013-04-10 15:00:00,
2013-04-10 10:05:00,50.5,47.7,29.85,North,0,0.0,0.0,90,0.00,,,0.00,WUHU21623XXSP,2013-04-10 15:05:00,
2013-04-10 10:10:00,50.5,47.7,29.86,North,0,0.0,0.0,90,0.00,,,0.00,WUHU21623XXSP,2013-04-10 15:10:00,
2013-04-10 10:15:00,50.7,47.8,29.83,North,0,0.0,0.0,90,0.00,,,0.00,WUHU21623XXSP,2013-04-10 15:15:00,
2013-04-10 10:20:00,50.7,48.1,29.82,North,0,0.0,0.0,91,0.00,,,0.00,WUHU21623XXSP,2013-04-10 15:20:00,
2013-04-10 10:25:00,50.7,48.1,29.80,North,0,0.0,0.0,91,0.00,,,0.00,WUHU21623XXSP,2013-04-10 15:25:00,
2013-04-10 10:30:00,50.9,48.3,29.84,North,0,0.0,0.0,91,0.00,,,0.00,WUHU21623XXSP,2013-04-10 15:30:00,
2013-04-10 10:35:00,51.4,48.8,29.83,North,0,0.0,0.0,91,0.00,,,0.00,WUHU21623XXSP,2013-04-10 15:35:00,
2013-04-10 10:40:00,51.6,48.8,29.82,North,0,0.0,0.0,91,0.00,,,0.00,WUHU21623XXSP,2013-04-10 15:40:00,
2013-04-10 10:45:00,52.3,49.7,29.83,North,0,0.0,0.0,91,0.00,,,0.00,WUHU21623XXSP,2013-04-10 15:45:00,
2013-04-10 10:50:00,52.7,50.1,29.83,North,0,0.0,0.0,91,0.00,,,0.00,WUHU21623XXSP,2013-04-10 15:50:00,
2013-04-10 10:55:00,53.1,50.5,29.82,North,0,0.0,0.0,91,0.00,,,0.00,WUHU21623XXSP,2013-04-10 15:55:00,
2013-04-10 11:00:00,53.4,50.8,29.83,North,0,0.0,0.0,91,0.00,,,0.00,WUHU21623XXSP,2013-04-10 16:00:00,
2013-04-10 11:05:00,53.2,50.6,29.84,North,0,0.0,0.0,91,0.00,,,0.00,WUHU21623XXSP,2013-04-10 16:05:00,
2013-04-10 11:10:00,53.2,50.4,29.84,North,0,0.0,0.0,90,0.00,,,0.00,WUHU21623XXSP,2013-04-10 16:10:00,
2013-04-10 11:15:00,53.2,50.4,29.85,North,0,0.0,0.0,90,0.00,,,0.00,WUHU21623XXSP,2013-04-10 16:15:00,
2013-04-10 11:20:00,53.2,50.4,29.85,North,0,0.0,0.0,90,0.00,,,0.00,WUHU21623XXSP,2013-04-10 16:20:00,
2013-04-10 11:25:00,53.2,50.4,29.85,North,0,0.0,0.0,90,0.00,,,0.00,WUHU21623XXSP,2013-04-10 16:25:00,
2013-04-10 11:30:00,53.2,50.4,29.86,North,0,0.0,0.0,90,0.00,,,0.00,WUHU21623XXSP,2013-04-10 16:30:00,
2013-04-10 11:35:00,53.2,50.4,29.86,North,0,0.0,0.0,90,0.00,,,0.00,WUHU21623XXSP,2013-04-10 16:35:00,
2013-04-10 11:40:00,53.4,50.5,29.87,North,0,0.0,0.0,90,0.00,,,0.00,WUHU21623XXSP,2013-04-10 16:40:00,
2013-04-10 11:45:00,53.4,50.5,29.88,North,0,0.0,0.0,90,0.00,,,0.00,WUHU21623XXSP,2013-04-10 16:45:00,
2013-04-10 11:50:00,53.4,50.5,29.87,North,0,0.0,0.0,90,0.00,,,0.00,WUHU21623XXSP,2013-04-10 16:50:00,
2013-04-10 11:55:00,53.4,50.5,29.85,North,0,0.0,0.0,90,0.00,,,0.00,WUHU21623XXSP,2013-04-10 16:55:00,
2013-04-10 12:00:00,53.4,50.5,29.85,North,0,0.0,0.0,90,0.00,,,0.00,WUHU21623XXSP,2013-04-10 17:00:00,
2013-04-10 12:07:00,53.6,50.5,29.85,North,0,0.0,0.0,90,0.00,,,0.00,WUHU21623XXSP,2013-04-10 17:07:00,
2013-04-10 12:12:00,53.8,51.2,29.84,North,0,0.0,0.0,91,0.00,,,0.00,WUHU21623XXSP,2013-04-10 17:12:00,
2013-04-10 12:17:00,53.8,51.2,29.85,North,0,0.0,0.0,91,0.00,,,0.00,WUHU21623XXSP,2013-04-10 17:17:00,
2013-04-10 12:22:00,53.8,51.2,29.85,North,0,0.0,0.0,91,0.00,,,0.00,WUHU21623XXSP,2013-04-10 17:22:00,
2013-04-10 12:27:00,53.8,51.2,29.84,North,0,0.0,0.0,91,0.00,,,0.00,WUHU21623XXSP,2013-04-10 17:27:00,
2013-04-10 12:32:00,54.0,51.4,29.88,North,0,0.0,0.0,91,0.00,,,0.00,WUHU21623XXSP,2013-04-10 17:32:00,
2013-04-10 12:37:00,54.0,51.1,29.87,North,0,0.0,0.0,90,0.00,,,0.00,WUHU21623XXSP,2013-04-10 17:37:00,
2013-04-10 12:42:00,54.0,51.1,29.84,North,0,0.0,0.0,90,0.00,,,0.00,WUHU21623XXSP,2013-04-10 17:42:00,
2013-04-10 12:47:00,54.0,51.1,29.86,North,0,0.0,0.0,90,0.00,,,0.00,WUHU21623XXSP,2013-04-10 17:47:00,
2013-04-10 12:52:00,54.1,51.3,29.85,North,0,0.0,0.0,90,0.00,,,0.00,WUHU21623XXSP,2013-04-10 17:52:00,
2013-04-10 12:57:00,54.1,51.5,29.84,North,0,0.0,0.0,90,0.00,,,0.00,WUHU21623XXSP,2013-04-10 17:57:00,
2013-04-10 13:02:00,54.3,51.7,29.84,North,0,0.0,0.0,91,0.00,,,0.00,WUHU21623XXSP,2013-04-10 18:02:00,
2013-04-10 13:07:00,54.7,52.1,29.83,North,0,0.0,0.0,91,0.00,,,0.00,WUHU21623XXSP,2013-04-10 18:07:00,
2013-04-10 13:12:00,54.9,52.3,29.83,North,0,0.0,0.0,91,0.00,,,0.00,WUHU21623XXSP,2013-04-10 18:12:00,
2013-04-10 13:17:00,55.2,52.6,29.83,North,0,0.0,0.0,91,0.00,,,0.00,WUHU21623XXSP,2013-04-10 18:17:00,
2013-04-10 13:22:00,55.2,52.3,29.83,North,0,0.0,0.0,90,0.00,,,0.00,WUHU21623XXSP,2013-04-10 18:22:00,
2013-04-10 13:27:00,55.2,52.3,29.82,North,0,0.0,0.0,90,0.00,,,0.00,WUHU21623XXSP,2013-04-10 18:27:00,
2013-04-10 13:32:00,55.2,52.3,29.82,North,0,0.0,0.0,90,0.00,,,0.00,WUHU21623XXSP,2013-04-10 18:32:00,
2013-04-10 13:37:00,55.2,52.3,29.81,North,0,0.0,0.0,90,0.00,,,0.00,WUHU21623XXSP,2013-04-10 18:37:00,
2013-04-10 13:42:00,55.4,52.8,29.80,North,0,0.0,0.0,91,0.00,,,0.00,WUHU21623XXSP,2013-04-10 18:42:00,
2013-04-10 13:47:00,56.1,53.5,29.80,North,0,0.0,0.0,91,0.00,,,0.00,WUHU21623XXSP,2013-04-10 18:47:00,
2013-04-10 13:52:00,56.5,53.9,29.81,North,0,0.0,0.0,91,0.00,,,0.00,WUHU21623XXSP,2013-04-10 18:52:00,
2013-04-10 13:57:00,57.4,54.8,29.80,North,0,0.0,0.0,91,0.00,,,0.00,WUHU21623XXSP,2013-04-10 18:57:00,
2013-04-10 14:02:00,58.6,56.0,29.80,North,0,0.0,0.0,91,0.00,,,0.00,WUHU21623XXSP,2013-04-10 19:02:00,
2013-04-10 14:07:00,58.8,56.2,29.79,North,0,0.0,0.0,90,0.00,,,0.00,WUHU21623XXSP,2013-04-10 19:07:00,
2013-04-10 14:12:00,59.5,56.5,29.79,North,0,0.0,0.0,90,0.00,,,0.00,WUHU21623XXSP,2013-04-10 19:12:00,
2013-04-10 14:17:00,59.9,56.8,29.79,North,0,0.0,0.0,90,0.00,,,0.00,WUHU21623XXSP,2013-04-10 19:17:00,
2013-04-10 14:22:00,60.1,56.7,29.79,North,0,0.0,0.0,89,0.00,,,0.00,WUHU21623XXSP,2013-04-10 19:22:00,
2013-04-10 14:27:00,60.1,56.9,29.79,North,0,0.0,0.0,88,0.00,,,0.00,WUHU21623XXSP,2013-04-10 19:27:00,
2013-04-10 14:32:00,60.4,56.9,29.79,North,0,0.0,0.0,88,0.00,,,0.00,WUHU21623XXSP,2013-04-10 19:32:00,
2013-04-10 14:38:00,60.1,56.6,29.79,North,0,0.0,0.0,87,0.00,,,0.00,WUHU21623XXSP,2013-04-10 19:38:00,
2013-04-10 14:43:00,59.5,55.7,29.79,North,0,0.0,0.0,87,0.00,,,0.00,WUHU21623XXSP,2013-04-10 19:43:00,
2013-04-10 14:48:00,59.2,55.5,29.79,North,0,0.0,0.0,87,0.00,,,0.00,WUHU21623XXSP,2013-04-10 19:48:00,
2013-04-10 14:53:00,58.8,55.0,29.79,North,0,0.0,0.0,87,0.00,,,0.00,WUHU21623XXSP,2013-04-10 19:53:00,
2013-04-10 14:58:00,58.1,54.8,29.78,North,0,0.0,0.0,87,0.00,,,0.00,WUHU21623XXSP,2013-04-10 19:58:00,
2013-04-10 15:03:00,57.7,54.4,29.76,North,0,0.0,0.0,87,0.00,,,0.00,WUHU21623XXSP,2013-04-10 20:03:00,
2013-04-10 15:08:00,57.2,53.9,29.75,North,0,0.0,0.0,89,0.00,,,0.00,WUHU21623XXSP,2013-04-10 20:08:00,
2013-04-10 15:13:00,56.8,53.8,29.75,North,0,0.0,0.0,89,0.00,,,0.00,WUHU21623XXSP,2013-04-10 20:13:00,
2013-04-10 15:18:00,56.7,53.8,29.75,North,0,0.0,0.0,90,0.00,,,0.00,WUHU21623XXSP,2013-04-10 20:18:00,
2013-04-10 15:23:00,56.5,53.6,29.75,North,0,0.0,0.0,90,0.00,,,0.00,WUHU21623XXSP,2013-04-10 20:23:00,
2013-04-10 15:28:00,56.5,53.6,29.75,North,0,0.0,0.0,90,0.00,,,0.00,WUHU21623XXSP,2013-04-10 20:28:00,
2013-04-10 15:33:00,56.5,53.6,29.75,North,0,0.0,0.0,90,0.00,,,0.00,WUHU21623XXSP,2013-04-10 20:33:00,
2013-04-10 15:39:00,56.7,53.8,29.74,North,0,0.0,0.0,90,0.00,,,0.00,WUHU21623XXSP,2013-04-10 20:39:00,
2013-04-10 15:44:00,56.7,54.1,29.74,North,0,0.0,0.0,91,0.00,,,0.00,WUHU21623XXSP,2013-04-10 20:44:00,
2013-04-10 15:49:00,56.8,54.2,29.74,North,0,0.0,0.0,91,0.00,,,0.00,WUHU21623XXSP,2013-04-10 20:49:00,
2013-04-10 15:54:00,56.8,54.2,29.72,North,0,0.0,0.0,91,0.00,,,0.00,WUHU21623XXSP,2013-04-10 20:54:00,
2013-04-10 15:59:00,56.5,53.9,29.73,North,0,0.0,0.0,91,0.00,,,0.00,WUHU21623XXSP,2013-04-10 20:59:00,
2013-04-10 16:04:00,56.5,53.9,29.72,North,0,0.0,0.0,91,0.00,,,0.00,WUHU21623XXSP,2013-04-10 21:04:00,
2013-04-10 16:09:00,56.5,53.9,29.71,North,0,0.0,0.0,91,0.00,,,0.00,WUHU21623XXSP,2013-04-10 21:09:00,
2013-04-10 16:14:00,56.5,53.9,29.71,North,0,0.0,0.0,91,0.00,,,0.00,WUHU21623XXSP,2013-04-10 21:14:00,
2013-04-10 16:19:00,56.5,53.9,29.70,North,0,0.0,0.0,91,0.00,,,0.00,WUHU21623XXSP,2013-04-10 21:19:00,
2013-04-10 16:24:00,56.8,54.2,29.71,North,0,0.0,0.0,91,0.00,,,0.00,WUHU21623XXSP,2013-04-10 21:24:00,
2013-04-10 16:29:00,56.8,54.2,29.71,North,0,0.0,0.0,91,0.00,,,0.00,WUHU21623XXSP,2013-04-10 21:29:00,
2013-04-10 16:34:00,56.5,53.9,29.70,North,0,0.0,0.0,91,0.00,,,0.00,WUHU21623XXSP,2013-04-10 21:34:00,
2013-04-10 16:39:00,56.5,53.9,29.68,North,0,0.0,0.0,91,0.00,,,0.00,WUHU21623XXSP,2013-04-10 21:39:00,
2013-04-10 16:44:00,56.5,53.9,29.68,North,0,0.0,0.0,91,0.00,,,0.00,WUHU21623XXSP,2013-04-10 21:44:00,
2013-04-10 16:49:00,56.3,53.7,29.66,North,0,0.0,0.0,91,0.00,,,0.00,WUHU21623XXSP,2013-04-10 21:49:00,
2013-04-10 16:54:00,56.3,53.7,29.66,North,0,0.0,0.0,91,0.00,,,0.00,WUHU21623XXSP,2013-04-10 21:54:00,
2013-04-10 16:59:00,55.9,53.3,29.65,North,0,0.0,0.0,91,0.00,,,0.00,WUHU21623XXSP,2013-04-10 21:59:00,
2013-04-10 17:04:00,55.9,53.3,29.65,North,0,0.0,0.0,91,0.00,,,0.00,WUHU21623XXSP,2013-04-10 22:04:00,
2013-04-10 17:09:00,55.8,53.3,29.65,North,0,0.0,0.0,91,0.00,,,0.00,WUHU21623XXSP,2013-04-10 22:09:00,
2013-04-10 17:14:00,55.8,53.2,29.64,North,0,0.0,0.0,91,0.00,,,0.00,WUHU21623XXSP,2013-04-10 22:14:00,
2013-04-10 17:19:00,55.8,53.2,29.64,North,0,0.0,0.0,91,0.00,,,0.00,WUHU21623XXSP,2013-04-10 22:19:00,
2013-04-10 17:24:00,55.6,53.0,29.67,North,0,0.0,0.0,91,0.00,,,0.00,WUHU21623XXSP,2013-04-10 22:24:00,
2013-04-10 17:29:00,55.6,53.0,29.65,North,0,0.0,0.0,91,0.00,,,0.00,WUHU21623XXSP,2013-04-10 22:29:00,
2013-04-10 17:34:00,54.7,52.1,29.71,North,0,0.0,0.0,91,0.00,,,0.00,WUHU21623XXSP,2013-04-10 22:34:00,
2013-04-10 17:39:00,54.3,51.7,29.69,North,0,0.0,0.0,91,0.00,,,0.00,WUHU21623XXSP,2013-04-10 22:39:00,
2013-04-10 17:44:00,53.8,51.2,29.70,North,0,0.0,0.0,91,0.00,,,0.00,WUHU21623XXSP,2013-04-10 22:44:00,
2013-04-10 17:49:00,53.6,51.0,29.70,North,0,0.0,0.0,91,0.00,,,0.00,WUHU21623XXSP,2013-04-10 22:49:00,
2013-04-10 17:54:00,53.6,51.0,29.69,North,0,0.0,0.0,91,0.00,,,0.00,WUHU21623XXSP,2013-04-10 22:54:00,
2013-04-10 17:59:00,53.8,51.2,29.70,North,0,0.0,0.0,91,0.00,,,0.00,WUHU21623XXSP,2013-04-10 22:59:00,
2013-04-10 18:04:00,53.8,51.2,29.69,North,0,0.0,0.0,91,0.00,,,0.00,WUHU21623XXSP,2013-04-10 23:04:00,
2013-04-10 18:09:00,53.8,51.5,29.68,North,0,0.0,0.0,92,0.00,,,0.00,WUHU21623XXSP,2013-04-10 23:09:00,
2013-04-10 18:14:00,53.8,51.5,29.67,North,0,0.0,0.0,92,0.00,,,0.00,WUHU21623XXSP,2013-04-10 23:14:00,
2013-04-10 18:19:00,54.0,51.7,29.66,North,0,0.0,0.0,92,0.00,,,0.00,WUHU21623XXSP,2013-04-10 23:19:00,
2013-04-10 18:24:00,54.0,51.7,29.65,North,0,0.0,0.0,92,0.00,,,0.00,WUHU21623XXSP,2013-04-10 23:24:00,
2013-04-10 18:29:00,54.1,51.8,29.66,North,0,0.0,0.0,92,0.00,,,0.00,WUHU21623XXSP,2013-04-10 23:29:00,
2013-04-10 18:35:00,54.1,51.8,29.68,North,0,0.0,0.0,92,0.00,,,0.00,WUHU21623XXSP,2013-04-10 23:35:00,
2013-04-10 18:40:00,54.1,51.8,29.67,North,0,0.0,0.0,92,0.00,,,0.00,WUHU21623XXSP,2013-04-10 23:40:00,
2013-04-10 18:45:00,54.3,52.0,29.71,North,0,0.0,0.0,92,0.00,,,0.00,WUHU21623XXSP,2013-04-10 23:45:00,
2013-04-10 18:50:00,54.3,52.0,29.77,North,0,0.0,0.0,92,0.00,,,0.00,WUHU21623XXSP,2013-04-10 23:50:00,
2013-04-10 18:55:00,54.1,51.8,29.78,North,0,0.0,0.0,92,0.00,,,0.00,WUHU21623XXSP,2013-04-10 23:55:00,
2013-04-10 19:00:00,53.4,51.1,29.75,North,0,0.0,0.0,92,0.00,,,0.00,WUHU21623XXSP,2013-04-11 00:00:00,
2013-04-10 19:05:00,53.2,50.9,29.74,North,0,0.0,0.0,92,0.00,,,0.00,WUHU21623XXSP,2013-04-11 00:05:00,
2013-04-10 19:10:00,52.9,50.6,29.74,North,0,0.0,0.0,92,0.00,,,0.00,WUHU21623XXSP,2013-04-11 00:10:00,
2013-04-10 19:15:00,52.5,50.2,29.74,North,0,0.0,0.0,92,0.00,,,0.00,WUHU21623XXSP,2013-04-11 00:15:00,
2013-04-10 19:20:00,52.3,50.0,29.74,North,0,0.0,0.0,92,0.00,,,0.00,WUHU21623XXSP,2013-04-11 00:20:00,
2013-04-10 19:25:00,52.2,49.9,29.73,North,0,0.0,0.0,92,0.00,,,0.00,WUHU21623XXSP,2013-04-11 00:25:00,
2013-04-10 19:30:00,52.2,49.9,29.72,North,0,0.0,0.0,92,0.00,,,0.00,WUHU21623XXSP,2013-04-11 00:30:00,
2013-04-10 19:35:00,52.0,49.7,29.73,North,0,0.0,0.0,92,0.00,,,0.00,WUHU21623XXSP,2013-04-11 00:35:00,
2013-04-10 19:40:00,52.0,49.7,29.73,North,0,0.0,0.0,92,0.00,,,0.00,WUHU21623XXSP,2013-04-11 00:40:00,
2013-04-10 19:45:00,51.8,49.5,29.72,North,0,0.0,0.0,92,0.00,,,0.00,WUHU21623XXSP,2013-04-11 00:45:00,
2013-04-10 19:50:00,51.8,49.5,29.71,North,0,0.0,0.0,92,0.00,,,0.00,WUHU21623XXSP,2013-04-11 00:50:00,
2013-04-10 19:55:00,51.8,49.5,29.71,North,0,0.0,0.0,92,0.00,,,0.00,WUHU21623XXSP,2013-04-11 00:55:00,
2013-04-10 20:00:00,51.8,49.5,29.71,North,0,0.0,0.0,92,0.00,,,0.00,WUHU21623XXSP,2013-04-11 01:00:00,
2013-04-10 20:05:00,51.8,49.5,29.72,North,0,0.0,0.0,92,0.00,,,0.00,WUHU21623XXSP,2013-04-11 01:05:00,
2013-04-10 20:10:00,51.8,49.5,29.72,North,0,0.0,0.0,92,0.00,,,0.00,WUHU21623XXSP,2013-04-11 01:10:00,
2013-04-10 20:15:00,51.8,49.5,29.71,North,0,0.0,0.0,92,0.00,,,0.00,WUHU21623XXSP,2013-04-11 01:15:00,
2013-04-10 20:20:00,51.6,49.3,29.71,North,0,0.0,0.0,92,0.00,,,0.00,WUHU21623XXSP,2013-04-11 01:20:00,
2013-04-10 20:25:00,51.6,49.3,29.71,North,0,0.0,0.0,92,0.00,,,0.00,WUHU21623XXSP,2013-04-11 01:25:00,
2013-04-10 20:30:00,51.6,49.6,29.67,North,0,0.0,0.0,93,0.00,,,0.00,WUHU21623XXSP,2013-04-11 01:30:00,
2013-04-10 20:35:00,51.6,49.6,29.68,North,0,0.0,0.0,93,0.00,,,0.00,WUHU21623XXSP,2013-04-11 01:35:00,
2013-04-10 20:40:00,51.6,49.6,29.69,North,0,0.0,0.0,93,0.00,,,0.00,WUHU21623XXSP,2013-04-11 01:40:00,
2013-04-10 20:45:00,51.6,49.6,29.69,North,0,0.0,0.0,93,0.00,,,0.00,WUHU21623XXSP,2013-04-11 01:45:00,
2013-04-10 20:50:00,51.6,49.6,29.69,North,0,0.0,0.0,93,0.00,,,0.00,WUHU21623XXSP,2013-04-11 01:50:00,
2013-04-10 20:55:00,51.6,49.6,29.68,North,0,0.0,0.0,93,0.00,,,0.00,WUHU21623XXSP,2013-04-11 01:55:00,
2013-04-10 21:00:00,51.6,49.6,29.68,North,0,0.0,0.0,93,0.00,,,0.00,WUHU21623XXSP,2013-04-11 02:00:00,
2013-04-10 21:05:00,51.6,49.6,29.69,North,0,0.0,0.0,93,0.00,,,0.00,WUHU21623XXSP,2013-04-11 02:05:00,
2013-04-10 21:10:00,51.6,49.6,29.69,North,0,0.0,0.0,93,0.00,,,0.00,WUHU21623XXSP,2013-04-11 02:10:00,
2013-04-10 21:15:00,51.6,49.6,29.68,North,0,0.0,0.0,93,0.00,,,0.00,WUHU21623XXSP,2013-04-11 02:15:00,
2013-04-10 21:20:00,51.6,49.6,29.69,North,0,0.0,0.0,93,0.00,,,0.00,WUHU21623XXSP,2013-04-11 02:20:00,
2013-04-10 21:25:00,51.8,49.8,29.69,North,0,0.0,0.0,93,0.00,,,0.00,WUHU21623XXSP,2013-04-11 02:25:00,
2013-04-10 21:30:00,51.8,49.8,29.69,North,0,0.0,0.0,93,0.00,,,0.00,WUHU21623XXSP,2013-04-11 02:30:00,
2013-04-10 21:35:00,51.8,49.8,29.69,North,0,0.0,0.0,93,0.00,,,0.00,WUHU21623XXSP,2013-04-11 02:35:00,
2013-04-10 21:40:00,52.0,50.0,29.69,North,0,0.0,0.0,93,0.00,,,0.00,WUHU21623XXSP,2013-04-11 02:40:00,
2013-04-10 21:45:00,52.0,50.0,29.69,North,0,0.0,0.0,93,0.00,,,0.00,WUHU21623XXSP,2013-04-11 02:45:00,
2013-04-10 21:50:00,52.2,50.1,29.69,North,0,0.0,0.0,93,0.00,,,0.00,WUHU21623XXSP,2013-04-11 02:50:00,
2013-04-10 21:55:00,52.3,50.3,29.69,North,0,0.0,0.0,93,0.00,,,0.00,WUHU21623XXSP,2013-04-11 02:55:00,
2013-04-10 22:00:00,52.3,50.3,29.69,North,0,0.0,0.0,93,0.00,,,0.00,WUHU21623XXSP,2013-04-11 03:00:00,
2013-04-10 22:05:00,52.3,50.3,29.69,North,0,0.0,0.0,93,0.00,,,0.00,WUHU21623XXSP,2013-04-11 03:05:00,
2013-04-10 22:10:00,52.3,50.3,29.69,North,0,0.0,0.0,93,0.00,,,0.00,WUHU21623XXSP,2013-04-11 03:10:00,
2013-04-10 22:15:00,52.3,50.3,29.69,North,0,0.0,0.0,93,0.00,,,0.00,WUHU21623XXSP,2013-04-11 03:15:00,
2013-04-10 22:20:00,52.3,50.3,29.69,North,0,0.0,0.0,93,0.00,,,0.00,WUHU21623XXSP,2013-04-11 03:20:00,
2013-04-10 22:25:00,52.3,50.3,29.69,North,0,0.0,0.0,93,0.00,,,0.00,WUHU21623XXSP,2013-04-11 03:25:00,
2013-04-10 22:30:00,52.3,50.3,29.69,North,0,0.0,0.0,93,0.00,,,0.00,WUHU21623XXSP,2013-04-11 03:30:00,
2013-04-10 22:35:00,52.3,50.5,29.69,North,0,0.0,0.0,93,0.00,,,0.00,WUHU21623XXSP,2013-04-11 03:35:00,
2013-04-10 22:40:00,52.3,50.3,29.68,North,0,0.0,0.0,93,0.00,,,0.00,WUHU21623XXSP,2013-04-11 03:40:00,
2013-04-10 22:45:00,52.2,50.3,29.68,North,0,0.0,0.0,93,0.00,,,0.00,WUHU21623XXSP,2013-04-11 03:45:00,
2013-04-10 22:50:00,52.0,50.0,29.68,North,0,0.0,0.0,93,0.00,,,0.00,WUHU21623XXSP,2013-04-11 03:50:00,
2013-04-10 22:55:00,52.0,50.0,29.68,North,0,0.0,0.0,93,0.00,,,0.00,WUHU21623XXSP,2013-04-11 03:55:00,
2013-04-10 23:00:00,51.6,49.6,29.68,North,0,0.0,0.0,93,0.00,,,0.00,WUHU21623XXSP,2013-04-11 04:00:00,
2013-04-10 23:03:00,51.6,49.6,29.68,North,0,0.0,0.0,93,0.00,,,0.00,WUHU21623XXSP,2013-04-11 04:03:00,
2013-04-10 23:05:00,51.4,49.4,29.68,North,0,0.0,0.0,93,0.00,,,0.00,WUHU21623XXSP,2013-04-11 04:05:00,
2013-04-10 23:10:00,51.3,49.2,29.69,North,0,0.0,0.0,93,0.00,,,0.00,WUHU21623XXSP,2013-04-11 04:10:00,
2013-04-10 23:15:00,51.1,49.1,29.69,North,0,0.0,0.0,93,0.00,,,0.00,WUHU21623XXSP,2013-04-11 04:15:00,
2013-04-10 23:20:00,50.9,48.9,29.70,North,0,0.0,0.0,93,0.00,,,0.00,WUHU21623XXSP,2013-04-11 04:20:00,
2013-04-10 23:25:00,50.7,48.7,29.70,North,0,0.0,0.0,93,0.00,,,0.00,WUHU21623XXSP,2013-04-11 04:25:00,
2013-04-10 23:31:00,50.7,48.7,29.70,North,0,0.0,0.0,93,0.00,,,0.00,WUHU21623XXSP,2013-04-11 04:31:00,
2013-04-10 23:36:00,50.5,48.7,29.70,North,0,0.0,0.0,93,0.00,,,0.00,WUHU21623XXSP,2013-04-11 04:36:00,
2013-04-10 23:41:00,50.4,48.3,29.70,North,0,0.0,0.0,93,0.00,,,0.00,WUHU21623XXSP,2013-04-11 04:41:00,
2013-04-10 23:46:00,49.8,48.2,29.70,North,0,0.0,0.0,93,0.00,,,0.00,WUHU21623XXSP,2013-04-11 04:46:00,
2013-04-10 23:51:00,49.8,47.8,29.71,North,0,0.0,0.0,93,0.00,,,0.00,WUHU21623XXSP,2013-04-11 04:51:00,
2013-04-10 23:56:00,49.8,47.8,29.71,North,0,0.0,0.0,93,0.00,,,0.00,WUHU21623XXSP,2013-04-11 04:56:00,